Gwinn, MI

6:50 PM EST on February 12, 2016 (GMT -0500)
Sawyer International

Weather History for KSAW - September, 2013

Change the Weather History Date:

Wednesday, September 4, 2013

  Actual Average (KESC) Record (KESC)
Temperature  
Mean Temperature 54 °F -  
Max Temperature 63 °F 70 °F 86 °F (1955)
Min Temperature 45 °F 54 °F 33 °F (1997)
Degree Days  
Heating Degree Days 10    
Growing Degree Days 4 (Base 50)    
Moisture  
Dew Point 49 °F    
Average Humidity 77    
Maximum Humidity 94    
Minimum Humidity 55    
Precipitation  
Precipitation 0.00 in - - ()
Sea Level Pressure  
Sea Level Pressure 30.05 in    
Wind  
Wind Speed 9 mph (North)    
Max Wind Speed 20 mph    
Max Gust Speed 25 mph    
Visibility 10 miles    
Events      
Averages and records for this station are not official NWS values.
T = Trace of Precipitation, MM = Missing Value Source: NWS Daily Summary

Daily Weather History Graph

Daily Weather History Graph

Search for Another Location

Airport or City:

Trip Planner

Search our weather history database for the weather conditions in past years. The results will help you decide how hot, cold, wet, or windy it might be!

Date:

Astronomy

Sep. 04, 2013 Rise Set
Actual Time 7:13 AM EDT 8:22 PM EDT
Civil Twilight 6:43 AM EDT 8:52 PM EDT
Nautical Twilight 6:05 AM EDT 9:29 PM EDT
Astronomical Twilight 5:26 AM EDT 10:08 PM EDT
Moon 6:25 AM EDT (9/4) 7:39 PM EDT (9/4)
Length of Visible Light 14h 09m
Length of Day
13h 08m
Waning Crescent, 1% of the Moon is Illuminated
Sep 4
Waning Crescent
Sep 5
New
Sep 12
First Quarter
Sep 19
Full
Sep 26
Last Quarter

Hourly Weather History & Observations

Time (EDT) Temp. Dew Point Humidity Pressure Visibility Wind Dir Wind Speed Gust Speed Precip Events Conditions
12:17 AM 62.4 °F 52.7 °F 70% 29.91 in 10.0 mi West 9.2 mph - N/A   Clear
12:37 AM 63.0 °F 52.9 °F 70% 29.91 in 10.0 mi WNW 8.1 mph 17.3 mph N/A   Clear
12:57 AM 62.6 °F 52.9 °F 70% 29.91 in 10.0 mi WNW 11.5 mph - N/A   Clear
1:17 AM 62.8 °F 52.9 °F 70% 29.91 in 10.0 mi WNW 9.2 mph - N/A   Clear
1:37 AM 62.8 °F 53.1 °F 71% 29.91 in 10.0 mi WNW 8.1 mph - N/A   Clear
1:57 AM 62.6 °F 53.2 °F 71% 29.91 in 10.0 mi WNW 8.1 mph - N/A   Clear
2:16 AM 62.6 °F 53.6 °F 72% 29.91 in 10.0 mi WNW 8.1 mph - N/A   Scattered Clouds
2:37 AM 62.8 °F 53.6 °F 72% 29.91 in 10.0 mi WNW 6.9 mph - N/A   Scattered Clouds
2:56 AM 63.0 °F 53.8 °F 72% 29.91 in 10.0 mi WNW 6.9 mph - N/A   Scattered Clouds
3:17 AM 62.6 °F 53.8 °F 73% 29.92 in 10.0 mi WNW 9.2 mph - N/A   Scattered Clouds
3:37 AM 62.6 °F 54.1 °F 74% 29.93 in 10.0 mi NW 5.8 mph - N/A   Scattered Clouds
3:57 AM 62.2 °F 54.5 °F 76% 29.94 in 10.0 mi NNW 6.9 mph - N/A   Clear
4:17 AM 62.8 °F 54.9 °F 75% 29.94 in 10.0 mi North 4.6 mph - N/A   Mostly Cloudy
4:37 AM 63.3 °F 56.1 °F 77% 29.95 in 10.0 mi North 17.3 mph - N/A   Overcast
4:57 AM 59.9 °F 56.3 °F 88% 29.97 in 10.0 mi North 18.4 mph - N/A   Overcast
5:17 AM 57.4 °F 55.2 °F 92% 29.98 in 10.0 mi NNE 18.4 mph 24.2 mph N/A   Overcast
5:37 AM 56.3 °F 52.9 °F 88% 29.99 in 10.0 mi NNE 19.6 mph 25.3 mph N/A   Overcast
5:56 AM 55.4 °F 52.7 °F 91% 30.01 in 10.0 mi North 15.0 mph 25.3 mph N/A   Overcast
6:50 AM 51.8 °F 50.0 °F 94% 30.04 in 4.0 mi North 12.7 mph 23.0 mph N/A   Overcast
7:50 AM 51.8 °F 48.2 °F 88% 30.07 in 10.0 mi NNE 10.4 mph - N/A   Overcast
8:50 AM 51.8 °F 46.4 °F 82% 30.09 in 10.0 mi NNE 12.7 mph 19.6 mph N/A   Overcast
9:50 AM 53.6 °F 46.4 °F 77% 30.11 in 10.0 mi NNE 12.7 mph - N/A   Overcast
10:50 AM 53.6 °F 46.4 °F 77% 30.13 in 10.0 mi NNE 15.0 mph - N/A   Overcast
11:55 AM 55.4 °F 44.6 °F 67% 30.14 in 10.0 mi NNE 12.7 mph - N/A   Scattered Clouds
12:50 PM 55.4 °F 42.8 °F 63% 30.16 in 10.0 mi NNE 13.8 mph 21.9 mph N/A   Scattered Clouds
1:50 PM 57.2 °F 42.8 °F 59% 30.15 in 10.0 mi NNE 6.9 mph 17.3 mph N/A   Clear
2:50 PM 59.0 °F 42.8 °F 55% 30.14 in 10.0 mi NE 11.5 mph - N/A   Clear
3:50 PM 59.0 °F 44.6 °F 59% 30.14 in 10.0 mi North 10.4 mph - N/A   Clear
4:55 PM 57.2 °F 44.6 °F 63% 30.14 in 10.0 mi ENE 8.1 mph - N/A   Clear
5:55 PM 57.2 °F 46.4 °F 67% 30.14 in 10.0 mi NE 9.2 mph - N/A   Clear
7:55 PM 53.6 °F 46.4 °F 77% 30.14 in 10.0 mi NNE 11.5 mph - N/A   Clear
8:55 PM 50.0 °F 44.6 °F 82% 30.17 in 10.0 mi NNE 5.8 mph - N/A   Clear
9:45 PM 50.0 °F 44.6 °F 82% 30.18 in 10.0 mi North 4.6 mph - N/A   Clear
10:17 PM 47.8 °F 44.6 °F 89% 30.18 in 10.0 mi North 5.8 mph - N/A   Clear
10:37 PM 48.6 °F 44.8 °F 87% 30.19 in 10.0 mi NNE 4.6 mph - N/A   Clear
10:57 PM 48.4 °F 44.6 °F 87% 30.19 in 10.0 mi Calm Calm - N/A   Clear
11:17 PM 47.8 °F 43.5 °F 85% 30.19 in 10.0 mi Calm Calm - N/A   Clear
11:36 PM 46.9 °F 43.7 °F 88% 30.19 in 10.0 mi Calm Calm - N/A   Clear
11:57 PM 45.9 °F 43.0 °F 90% 30.19 in 10.0 mi Calm Calm - N/A   Clear